SCP
0 0 0 0 0 0 0 0 0 0 0 0 0 0 0 0 0 -0 -0 -0 -0 -0 -0 -0 0 0 -0 -0 0 0 0 0 -0 -0 0 0 0 0 0 0 0 0 0 0
0 0 0 0 0 0 0 0 0 0 0 0 0 0 0 0 -0 0 -0 0 -0 -0 -0 -0 0 -0 -0 0 0 0 0 0 0 0 0 -0 0 0 0 0 0 0 0 -0
0 0 0 0 0 0 0 0 0 0 0 0 0 0 0 0 0 0 -0 0 -0 -0 -0 0 -0 0 0 0 -0 -0 0 0 0 0 0 0 0 0 0 0 0 0 0 -0
0 0 0 0 0 0 0 0 0 0 0 0 0 0 0 0 0 0 0 0 0 -0 -0 0 0 0 -0 -0 0 0 0 -0 0 0 0 0 0 0 0 0 0 0 0 -0
0 0 0 0 0 0 0 0 0 0 0 0 0 0 0 0 0 -0 0 -0 0 -0 -0 -0 -0 -0 -0 -0 -0 -0 0 0 0 0 0 -0 0 0 0 0 0 0 -0 0
0 0 0 0 0 0 0 0 0 0 0 0 0 0 0 0 0 0 0 -0 -0 0 -0 -0 -0 -0 -0 -0 0 -0 -0 0 0 0 -0 -0 0 0 0 0 0 0 -0 0
0 0 0 0 0 0 0 0 0 0 0 0 0 0 0 0 0 0 0 0 0 -0 0 0 -0 -0 -0 -0 -0 -0 -0 -0 -0 -0 -0 0 0 0 0 0 0 -0 -0 0
0 0 0 0 0 0 0 0 0 0 0 0 0 0 0 0 0 0 -0 0 0 -0 0 -0 0 0 0 -0 -0 -0 -0 -0 0 0 0 0 0 0 0 0 0 1 0 0
0 0 0 0 0 0 0 0 0 0 0 0 0 0 0 0 0 0 0 0 0 0 0 -0 -0 0 0 -0 -0 -0 -0 0 0 -0 0 0 0 0 0 0 0 0 0 0
0 0 0 0 0 0 0 0 0 0 0 0 0 0 0 0 0 0 0 0 0 0 -0 0 -0 0 0 0 0 0 0 0 0 -0 -0 -0 0 0 0 0 0 0 0 0
0 0 0 0 0 0 0 0 0 0 0 0 0 0 0 0 0 0 0 0 0 0 0 0 0 0 0 0 -0 -0 -0 0 -0 -0 -0 0 0 0 0 0 0 0 0 0
0 0 0 0 0 0 0 0 0 0 0 0 0 0 0 0 0 0 0 0 0 0 -0 0 0 0 0 0 -0 -0 0 0 0 0 -0 0 0 0 0 0 0 0 0 0
0 0 0 0 0 0 0 0 0 0 0 0 0 0 0 0 0 0 0 0 0 0 0 0 0 0 0 -0 -0 0 -0 0 0 -0 0 0 0 0 0 0 0 0 0 0
0 0 0 0 0 0 0 0 0 0 0 0 0 0 -0 0 0 0 0 0 0 0 0 -0 0 0 0 -0 -0 -0 -0 0 -0 0 0 0 0 0 0 0 0 0 0 0
0 0 0 0 0 0 0 0 0 0 0 0 0 -0 0 0 0 0 0 0 0 0 -0 0 0 -0 0 -0 -0 -0 -0 0 -0 -0 0 0 0 -0 0 0 0 0 0 0
0 0 0 0 0 0 0 0 0 0 0 0 0 0 0 0 0 0 0 0 0 0 0 0 -0 -0 -0 -0 -0 -0 0 -0 -0 -0 0 0 0 0 0 0 0 0 0 0
0 0 0 0 0 0 0 0 0 0 0 0 0 0 0 0 0 0 0 0 0 0 0 0 -0 -0 -0 -0 -0 -0 0 0 0 0 -0 0 0 0 0 0 0 0 0 0
0 0 0 0 0 0 0 -0 0 0 0 0 0 0 0 0 0 0 0 0 0 0 0 0 -0 -0 -0 -0 -0 -0 0 -0 -0 -0 0 0 0 0 0 0 0 0 0 0
0 0 0 0 0 0 0 0 0 0 0 0 0 0 0 0 0 0 0 0 0 0 0 0 0 0 -0 -0 -0 -0 -0 -0 0 -0 0 0 0 0 0 0 0 0 0 0
0 0 0 0 0 0 0 0 0 0 0 0 0 0 0 0 0 0 0 0 0 0 0 0 0 0 0 -0 -0 -0 -0 -0 -0 0 0 0 0 0 0 0 0 0 0 0
0 0 0 0 0 0 0 0 0 0 0 0 0 0 0 0 0 0 0 0 0 0 0 0 0 0 0 0 -0 -0 -0 -0 0 -0 -0 -0 0 0 0 0 0 0 0 0
0 0 0 0 0 0 0 0 0 0 0 0 0 0 0 0 0 0 0 0 0 0 -0 0 0 0 0 0 -0 -0 -0 -0 -0 -0 0 -0 0 0 0 0 0 0 0 0
0 0 0 0 0 0 0 0 0 0 0 0 0 0 0 0 0 0 0 0 0 -0 -0 0 0 0 -0 0 0 -0 0 -0 -0 -0 -0 -0 -0 -0 0 0 0 0 0 0
0 0 0 0 0 0 0 -0 -0 0 0 0 0 0 0 0 0 0 0 0 0 0 -0 -0 0 0 0 0 0 0 -0 0 0 -0 -0 -0 -0 -0 -0 0 0 0 0 0
0 0 0 0 0 -0 -0 0 0 0 0 0 0 0 0 0 0 0 0 0 0 0 -0 -0 0 0 -0 0 0 0 0 0 -0 -0 -0 -0 -0 -0 -0 0 0 0 0 0
0 0 0 0 0 0 0 0 0 0 0 0 0 0 0 0 0 0 0 0 0 0 0 0 0 -0 -0 0 0 0 0 0 0 0 0 0 -0 -0 -0 -0 -0 -0 -0 0
0 0 0 0 0 0 0 0 0 0 0 0 0 0 0 0 0 0 0 0 0 0 0 0 0 0 0 0 0 0 0 0 0 0 0 0 0 0 0 0 0 0 -0 -0
Wind_Speed_500mb
55 57 64 68 65 65 53 14 7 12 13 6 4 5 30 48 45 53 25 22 23 5 26 23 15 25 4 8 9 21 8 6 14 24 32 32 29 40 32 18 27 20 9 17
58 56 58 63 58 57 58 32 18 18 5 3 4 19 27 36 37 25 24 21 26 24 18 9 19 16 19 24 11 7 5 6 9 12 14 18 16 25 26 11 12 40 20 26
58 59 54 59 54 42 45 15 7 17 25 28 19 19 18 30 29 30 34 28 27 15 14 14 13 8 15 25 24 22 6 7 14 14 28 21 22 39 32 24 20 15 36 38
58 61 53 55 53 35 29 7 10 27 9 23 30 24 18 28 33 25 35 11 20 28 24 32 26 23 14 22 15 6 7 11 16 29 39 21 26 39 39 35 29 23 23 21
56 58 54 53 57 43 17 16 14 23 40 38 33 8 5 22 29 30 20 25 28 25 26 34 27 30 26 16 7 10 10 7 15 29 36 19 28 41 39 37 42 30 40 30
55 55 53 47 52 48 14 19 21 20 17 23 20 21 25 18 37 10 42 39 22 24 33 47 51 50 45 32 28 13 14 10 9 11 10 14 10 34 42 29 34 35 39 19
54 51 53 47 43 40 30 27 31 15 12 17 25 41 37 33 38 28 42 43 19 33 66 83 61 53 50 37 31 23 20 19 2 10 6 8 4 19 22 25 25 39 38 26
51 49 50 49 45 39 36 26 18 12 9 29 37 37 42 49 38 27 39 50 63 66 29 11 14 8 4 20 30 27 28 13 5 6 6 13 20 30 20 20 26 32 41 37
51 49 49 50 49 39 40 36 16 33 13 13 43 49 47 26 16 15 29 61 52 26 3 7 8 8 7 9 16 25 21 17 8 5 6 6 8 34 55 37 14 25 19 25
52 50 48 48 48 41 42 43 8 30 27 52 30 30 31 31 34 11 19 32 21 26 9 6 5 6 9 8 10 11 2 6 5 7 6 9 30 52 74 8 3 39 24 25
52 50 48 47 46 48 46 54 19 31 27 67 60 32 46 62 54 9 21 20 9 6 11 7 7 6 9 7 7 6 6 8 2 2 6 7 34 38 12 12 42 47 23 31
49 49 47 47 46 44 49 51 17 26 33 54 77 61 45 44 42 44 5 8 8 10 5 7 6 5 6 8 8 11 4 9 6 12 5 6 41 34 38 34 29 34 37 33
48 51 48 46 46 44 52 53 40 21 33 56 21 29 25 17 27 31 9 7 8 6 13 7 3 7 5 5 5 6 10 16 7 3 9 10 18 42 54 54 41 50 46 32
46 52 47 47 48 49 54 53 28 23 18 10 21 29 57 25 29 29 17 13 14 13 13 9 5 6 13 1 1 6 7 7 11 7 7 10 13 41 53 50 43 49 44 48
51 47 44 46 50 53 52 43 28 33 21 10 30 60 25 24 40 27 17 14 8 6 7 7 6 8 3 7 0 3 7 7 6 4 22 17 36 31 40 49 48 39 42 49
54 53 43 45 49 49 30 11 5 17 34 12 7 24 22 21 27 25 30 24 19 10 9 11 11 10 12 4 0 15 27 19 17 8 20 20 24 28 39 36 36 41 42 37
49 38 38 43 42 33 16 7 4 15 26 9 10 10 10 22 26 25 29 29 22 19 10 8 8 11 9 4 7 22 30 19 17 22 27 15 33 34 39 24 35 36 43 30
43 38 40 39 28 17 14 25 13 18 22 13 6 8 12 15 18 13 22 18 18 13 10 10 5 9 4 5 8 10 20 22 16 28 16 15 17 20 37 39 41 44 41 41
37 30 34 23 6 7 8 15 16 37 14 8 8 6 6 3 20 11 8 10 6 6 5 5 5 5 4 1 5 11 23 6 18 29 19 18 22 25 28 30 37 43 46 40
26 19 8 5 7 14 13 7 9 12 14 14 10 26 9 6 12 4 9 7 3 1 7 2 4 3 7 10 7 4 4 22 19 27 30 25 26 27 26 27 25 25 25 23
19 11 9 11 6 8 9 8 11 14 9 16 17 31 16 9 4 2 2 3 7 4 5 6 4 3 7 11 8 10 15 16 20 26 19 17 27 22 24 27 27 24 19 26
27 27 36 23 6 12 8 6 8 12 9 17 11 21 17 8 6 5 3 0 5 7 11 4 5 5 17 14 21 12 17 21 15 22 31 22 25 28 24 29 24 21 18 16
15 5 6 5 8 8 11 11 8 7 9 15 16 8 9 7 6 4 4 1 7 21 6 2 3 18 23 11 15 14 16 17 24 30 33 27 35 34 35 33 36 32 33 28
7 7 8 10 10 10 11 12 12 9 18 13 11 15 11 13 7 6 4 7 1 6 5 3 7 23 18 14 12 9 7 16 21 25 25 22 25 29 30 28 31 30 32 34
10 11 9 12 29 36 34 37 41 35 8 3 5 6 10 3 4 5 1 3 5 8 7 4 18 32 27 22 17 7 9 13 24 18 23 19 22 19 23 23 27 27 38 38
11 17 15 32 28 26 33 30 27 24 15 11 6 1 3 8 7 5 8 3 8 7 5 3 27 23 33 25 21 16 7 14 10 14 20 17 14 15 16 23 26 25 36 46
12 15 25 40 45 41 49 48 35 9 18 6 6 5 10 6 6 8 9 9 7 15 21 10 21 20 19 23 27 15 16 15 9 9 13 12 13 16 19 23 19 26 34 37
Wind_Direction_500mb
351 348 354 358 350 349 353 10 297 225 329 248 182 273 316 317 325 350 335 323 333 358 284 312 316 341 240 303 296 306 32 292 290 285 276 268 272 283 239 225 228 238 215 265
357 351 351 359 355 348 348 337 282 261 293 287 277 294 329 324 335 325 312 338 318 1 335 342 315 327 237 247 272 275 35 308 302 285 232 226 248 268 247 236 241 223 237 242
355 354 350 357 360 348 344 334 317 354 323 351 336 329 313 323 317 322 341 321 317 309 302 287 261 268 305 232 269 284 151 257 250 277 301 312 291 316 325 262 237 229 227 259
352 353 352 354 360 355 346 322 336 3 319 329 308 321 286 316 327 338 325 302 323 318 315 303 301 314 278 264 155 103 130 257 252 274 283 279 266 284 299 304 261 230 233 263
349 351 353 352 358 8 8 340 339 325 299 308 305 48 293 303 318 329 312 317 332 330 294 292 320 308 304 285 203 160 203 256 268 286 275 194 251 268 281 278 281 267 247 245
344 346 349 348 354 1 2 321 322 320 285 308 323 327 346 298 309 306 315 310 342 302 297 310 301 289 276 270 267 251 201 237 323 289 182 163 298 256 264 261 274 276 243 196
343 343 345 345 344 349 333 329 313 285 283 312 313 317 323 339 325 310 311 317 304 325 328 319 297 270 260 248 246 209 239 261 160 256 139 198 233 339 228 237 278 320 251 169
337 341 342 344 340 334 331 341 294 288 278 298 302 335 322 319 318 320 318 331 324 319 333 296 303 324 312 226 223 208 212 220 248 270 222 334 351 350 354 336 25 356 73 64
331 333 336 338 341 335 326 334 257 280 279 243 320 313 308 314 327 314 316 327 331 358 224 318 323 6 313 319 342 306 197 188 172 15 299 279 184 324 331 314 64 343 15 76
321 326 328 331 335 332 326 323 283 282 268 280 282 302 304 305 321 290 311 336 326 3 340 346 318 331 333 7 355 338 52 344 237 197 194 246 335 333 310 121 39 311 341 54
315 318 321 326 328 330 323 319 312 259 270 282 285 298 287 300 301 307 319 333 358 321 1 351 346 326 355 323 323 357 353 308 300 210 43 337 358 319 57 334 330 298 30 31
312 314 316 320 325 326 324 312 307 271 277 269 289 298 303 281 265 276 281 274 276 340 344 15 305 314 309 337 1 357 355 346 325 354 75 336 330 334 360 322 287 342 58 29
304 310 314 314 321 322 319 310 312 271 279 299 294 324 321 283 258 252 208 261 266 286 344 312 282 286 279 338 358 360 341 6 356 17 1 311 328 346 345 337 343 10 32 36
300 304 308 312 317 319 317 304 302 241 266 276 283 299 299 278 247 235 264 229 258 290 291 245 244 252 223 347 314 3 327 308 339 319 301 327 352 345 338 333 357 11 10 22
309 307 307 310 311 315 313 307 296 208 226 288 299 316 353 232 225 247 259 241 220 267 256 222 240 256 296 86 125 61 337 327 354 292 331 335 317 334 357 334 341 0 5 9
306 306 304 305 309 312 313 315 355 196 219 279 298 290 286 212 214 237 244 257 255 235 265 251 260 346 21 91 350 29 349 345 340 310 319 331 330 352 339 335 346 358 360 19
322 319 304 300 307 301 220 232 140 178 205 262 277 282 307 221 230 251 236 239 224 231 262 251 267 335 44 65 17 348 319 353 354 342 338 331 347 345 4 2 356 2 11 20
321 314 301 301 304 291 261 221 238 200 216 256 270 271 266 220 234 225 230 221 216 234 252 266 262 322 96 81 358 9 18 5 358 341 359 344 340 350 359 18 18 23 12 16
321 313 308 299 213 228 238 244 230 205 236 276 239 251 273 218 257 236 227 233 208 248 217 271 49 7 76 67 9 10 25 324 329 8 24 22 28 22 15 13 16 15 13 11
331 328 349 192 30 344 307 240 186 202 216 227 258 237 258 298 320 351 357 321 259 180 253 139 45 248 256 245 252 193 360 62 43 12 12 20 23 36 32 20 11 6 358 354
2 332 287 257 253 311 247 230 191 184 222 219 238 216 230 312 238 194 29 314 297 272 291 183 192 273 164 196 196 77 59 49 58 48 37 41 41 46 39 22 7 1 349 353
305 289 289 300 248 235 240 228 215 202 233 195 217 198 186 178 141 86 33 248 344 280 329 202 174 198 166 172 110 121 52 61 68 61 62 48 44 36 39 26 12 26 6 336
330 270 261 237 231 243 215 210 224 213 209 177 205 156 111 106 107 77 67 6 248 317 324 242 187 169 140 126 102 89 62 70 111 92 65 56 51 52 47 47 37 36 32 21
279 234 251 213 217 233 208 251 268 219 233 44 13 143 137 178 149 140 158 224 58 342 265 250 126 121 145 161 129 120 46 73 110 91 83 68 55 45 51 53 40 32 31 32
271 238 241 233 236 273 274 254 264 280 206 177 315 72 145 95 139 186 122 276 248 214 233 229 171 190 188 176 158 148 71 91 61 90 75 84 67 60 42 42 45 36 29 41
239 239 262 277 284 284 293 267 281 280 280 212 139 312 184 193 166 148 187 193 226 245 233 194 154 182 216 177 164 167 132 121 94 63 82 83 71 67 77 59 45 46 27 31
237 248 260 271 278 277 282 288 290 285 295 240 132 183 220 218 163 178 167 203 220 242 263 192 150 152 198 167 172 181 173 138 119 119 106 102 83 106 65 67 67 57 46 31
Wind_Speed_850mb
55 57 64 68 65 65 53 14 7 12 13 6 4 5 30 48 45 53 25 22 23 5 26 23 15 25 4 8 9 21 8 6 14 24 32 32 29 40 32 18 27 20 9 17
58 56 58 63 58 57 58 32 18 18 5 3 4 19 27 36 37 25 24 21 26 24 18 9 19 16 19 24 11 7 5 6 9 12 14 18 16 25 26 11 12 40 20 26
58 59 54 59 54 42 45 15 7 17 25 28 19 19 18 30 29 30 34 28 27 15 14 14 13 8 15 25 24 22 6 7 14 14 28 21 22 39 32 24 20 15 36 38
58 61 53 55 53 35 29 7 10 27 9 23 30 24 18 28 33 25 35 11 20 28 24 32 26 23 14 22 15 6 7 11 16 29 39 21 26 39 39 35 29 23 23 21
56 58 54 53 57 43 17 16 14 23 40 38 33 8 5 22 29 30 20 25 28 25 26 34 27 30 26 16 7 10 10 7 15 29 36 19 28 41 39 37 42 30 40 30
55 55 53 47 52 48 14 19 21 20 17 23 20 21 25 18 37 10 42 39 22 24 33 47 51 50 45 32 28 13 14 10 9 11 10 14 10 34 42 29 34 35 39 19
54 51 53 47 43 40 30 27 31 15 12 17 25 41 37 33 38 28 42 43 19 33 66 83 61 53 50 37 31 23 20 19 2 10 6 8 4 19 22 25 25 39 38 26
51 49 50 49 45 39 36 26 18 12 9 29 37 37 42 49 38 27 39 50 63 66 29 11 14 8 4 20 30 27 28 13 5 6 6 13 20 30 20 20 26 32 41 37
51 49 49 50 49 39 40 36 16 33 13 13 43 49 47 26 16 15 29 61 52 26 3 7 8 8 7 9 16 25 21 17 8 5 6 6 8 34 55 37 14 25 19 25
52 50 48 48 48 41 42 43 8 30 27 52 30 30 31 31 34 11 19 32 21 26 9 6 5 6 9 8 10 11 2 6 5 7 6 9 30 52 74 8 3 39 24 25
52 50 48 47 46 48 46 54 19 31 27 67 60 32 46 62 54 9 21 20 9 6 11 7 7 6 9 7 7 6 6 8 2 2 6 7 34 38 12 12 42 47 23 31
49 49 47 47 46 44 49 51 17 26 33 54 77 61 45 44 42 44 5 8 8 10 5 7 6 5 6 8 8 11 4 9 6 12 5 6 41 34 38 34 29 34 37 33
48 51 48 46 46 44 52 53 40 21 33 56 21 29 25 17 27 31 9 7 8 6 13 7 3 7 5 5 5 6 10 16 7 3 9 10 18 42 54 54 41 50 46 32
46 52 47 47 48 49 54 53 28 23 18 10 21 29 57 25 29 29 17 13 14 13 13 9 5 6 13 1 1 6 7 7 11 7 7 10 13 41 53 50 43 49 44 48
51 47 44 46 50 53 52 43 28 33 21 10 30 60 25 24 40 27 17 14 8 6 7 7 6 8 3 7 0 3 7 7 6 4 22 17 36 31 40 49 48 39 42 49
54 53 43 45 49 49 30 11 5 17 34 12 7 24 22 21 27 25 30 24 19 10 9 11 11 10 12 4 0 15 27 19 17 8 20 20 24 28 39 36 36 41 42 37
49 38 38 43 42 33 16 7 4 15 26 9 10 10 10 22 26 25 29 29 22 19 10 8 8 11 9 4 7 22 30 19 17 22 27 15 33 34 39 24 35 36 43 30
43 38 40 39 28 17 14 25 13 18 22 13 6 8 12 15 18 13 22 18 18 13 10 10 5 9 4 5 8 10 20 22 16 28 16 15 17 20 37 39 41 44 41 41
37 30 34 23 6 7 8 15 16 37 14 8 8 6 6 3 20 11 8 10 6 6 5 5 5 5 4 1 5 11 23 6 18 29 19 18 22 25 28 30 37 43 46 40
26 19 8 5 7 14 13 7 9 12 14 14 10 26 9 6 12 4 9 7 3 1 7 2 4 3 7 10 7 4 4 22 19 27 30 25 26 27 26 27 25 25 25 23
19 11 9 11 6 8 9 8 11 14 9 16 17 31 16 9 4 2 2 3 7 4 5 6 4 3 7 11 8 10 15 16 20 26 19 17 27 22 24 27 27 24 19 26
27 27 36 23 6 12 8 6 8 12 9 17 11 21 17 8 6 5 3 0 5 7 11 4 5 5 17 14 21 12 17 21 15 22 31 22 25 28 24 29 24 21 18 16
15 5 6 5 8 8 11 11 8 7 9 15 16 8 9 7 6 4 4 1 7 21 6 2 3 18 23 11 15 14 16 17 24 30 33 27 35 34 35 33 36 32 33 28
7 7 8 10 10 10 11 12 12 9 18 13 11 15 11 13 7 6 4 7 1 6 5 3 7 23 18 14 12 9 7 16 21 25 25 22 25 29 30 28 31 30 32 34
10 11 9 12 29 36 34 37 41 35 8 3 5 6 10 3 4 5 1 3 5 8 7 4 18 32 27 22 17 7 9 13 24 18 23 19 22 19 23 23 27 27 38 38
11 17 15 32 28 26 33 30 27 24 15 11 6 1 3 8 7 5 8 3 8 7 5 3 27 23 33 25 21 16 7 14 10 14 20 17 14 15 16 23 26 25 36 46
12 15 25 40 45 41 49 48 35 9 18 6 6 5 10 6 6 8 9 9 7 15 21 10 21 20 19 23 27 15 16 15 9 9 13 12 13 16 19 23 19 26 34 37
Wind_Direction_850mb
351 348 354 358 350 349 353 10 297 225 329 248 182 273 316 317 325 350 335 323 333 358 284 312 316 341 240 303 296 306 32 292 290 285 276 268 272 283 239 225 228 238 215 265
357 351 351 359 355 348 348 337 282 261 293 287 277 294 329 324 335 325 312 338 318 1 335 342 315 327 237 247 272 275 35 308 302 285 232 226 248 268 247 236 241 223 237 242
355 354 350 357 360 348 344 334 317 354 323 351 336 329 313 323 317 322 341 321 317 309 302 287 261 268 305 232 269 284 151 257 250 277 301 312 291 316 325 262 237 229 227 259
352 353 352 354 360 355 346 322 336 3 319 329 308 321 286 316 327 338 325 302 323 318 315 303 301 314 278 264 155 103 130 257 252 274 283 279 266 284 299 304 261 230 233 263
349 351 353 352 358 8 8 340 339 325 299 308 305 48 293 303 318 329 312 317 332 330 294 292 320 308 304 285 203 160 203 256 268 286 275 194 251 268 281 278 281 267 247 245
344 346 349 348 354 1 2 321 322 320 285 308 323 327 346 298 309 306 315 310 342 302 297 310 301 289 276 270 267 251 201 237 323 289 182 163 298 256 264 261 274 276 243 196
343 343 345 345 344 349 333 329 313 285 283 312 313 317 323 339 325 310 311 317 304 325 328 319 297 270 260 248 246 209 239 261 160 256 139 198 233 339 228 237 278 320 251 169
337 341 342 344 340 334 331 341 294 288 278 298 302 335 322 319 318 320 318 331 324 319 333 296 303 324 312 226 223 208 212 220 248 270 222 334 351 350 354 336 25 356 73 64
331 333 336 338 341 335 326 334 257 280 279 243 320 313 308 314 327 314 316 327 331 358 224 318 323 6 313 319 342 306 197 188 172 15 299 279 184 324 331 314 64 343 15 76
321 326 328 331 335 332 326 323 283 282 268 280 282 302 304 305 321 290 311 336 326 3 340 346 318 331 333 7 355 338 52 344 237 197 194 246 335 333 310 121 39 311 341 54
315 318 321 326 328 330 323 319 312 259 270 282 285 298 287 300 301 307 319 333 358 321 1 351 346 326 355 323 323 357 353 308 300 210 43 337 358 319 57 334 330 298 30 31
312 314 316 320 325 326 324 312 307 271 277 269 289 298 303 281 265 276 281 274 276 340 344 15 305 314 309 337 1 357 355 346 325 354 75 336 330 334 360 322 287 342 58 29
304 310 314 314 321 322 319 310 312 271 279 299 294 324 321 283 258 252 208 261 266 286 344 312 282 286 279 338 358 360 341 6 356 17 1 311 328 346 345 337 343 10 32 36
300 304 308 312 317 319 317 304 302 241 266 276 283 299 299 278 247 235 264 229 258 290 291 245 244 252 223 347 314 3 327 308 339 319 301 327 352 345 338 333 357 11 10 22
309 307 307 310 311 315 313 307 296 208 226 288 299 316 353 232 225 247 259 241 220 267 256 222 240 256 296 86 125 61 337 327 354 292 331 335 317 334 357 334 341 0 5 9
306 306 304 305 309 312 313 315 355 196 219 279 298 290 286 212 214 237 244 257 255 235 265 251 260 346 21 91 350 29 349 345 340 310 319 331 330 352 339 335 346 358 360 19
322 319 304 300 307 301 220 232 140 178 205 262 277 282 307 221 230 251 236 239 224 231 262 251 267 335 44 65 17 348 319 353 354 342 338 331 347 345 4 2 356 2 11 20
321 314 301 301 304 291 261 221 238 200 216 256 270 271 266 220 234 225 230 221 216 234 252 266 262 322 96 81 358 9 18 5 358 341 359 344 340 350 359 18 18 23 12 16
321 313 308 299 213 228 238 244 230 205 236 276 239 251 273 218 257 236 227 233 208 248 217 271 49 7 76 67 9 10 25 324 329 8 24 22 28 22 15 13 16 15 13 11
331 328 349 192 30 344 307 240 186 202 216 227 258 237 258 298 320 351 357 321 259 180 253 139 45 248 256 245 252 193 360 62 43 12 12 20 23 36 32 20 11 6 358 354
2 332 287 257 253 311 247 230 191 184 222 219 238 216 230 312 238 194 29 314 297 272 291 183 192 273 164 196 196 77 59 49 58 48 37 41 41 46 39 22 7 1 349 353
305 289 289 300 248 235 240 228 215 202 233 195 217 198 186 178 141 86 33 248 344 280 329 202 174 198 166 172 110 121 52 61 68 61 62 48 44 36 39 26 12 26 6 336
330 270 261 237 231 243 215 210 224 213 209 177 205 156 111 106 107 77 67 6 248 317 324 242 187 169 140 126 102 89 62 70 111 92 65 56 51 52 47 47 37 36 32 21
279 234 251 213 217 233 208 251 268 219 233 44 13 143 137 178 149 140 158 224 58 342 265 250 126 121 145 161 129 120 46 73 110 91 83 68 55 45 51 53 40 32 31 32
271 238 241 233 236 273 274 254 264 280 206 177 315 72 145 95 139 186 122 276 248 214 233 229 171 190 188 176 158 148 71 91 61 90 75 84 67 60 42 42 45 36 29 41
239 239 262 277 284 284 293 267 281 280 280 212 139 312 184 193 166 148 187 193 226 245 233 194 154 182 216 177 164 167 132 121 94 63 82 83 71 67 77 59 45 46 27 31
237 248 260 271 278 277 282 288 290 285 295 240 132 183 220 218 163 178 167 203 220 242 263 192 150 152 198 167 172 181 173 138 119 119 106 102 83 106 65 67 67 57 46 31